Location: Basse Occidentale du Courleau
(48.3833°N, 4.8333°W)
Time: 04:30:03
(UTC+00:00)

Cosmos 1842 Rocket - Pass Details

Date: 05 July 2020
Orbit: 605 x 634 km, 82.5° (Epoch: 11 August)

Event Time Altitude Azimuth Distance (km) Brightness Sun altitude
Rises 21:39:30 0° 357° (N) 2,890 8.0 -10.0°
Reaches altitude 10° 21:41:53 10° 6° (N) 1,976 6.9 -10.2°
Maximum altitude 21:45:56 36° 73° (ENE) 964 4.4 -10.6°
Enters shadow 21:49:03 15° 135° (SE) 1,636 5.1 -10.9°
